Satellite: ORSTED
Catalog number: 25635
Epoch time:      103034.01538807
Element set:     822 
Inclination:       96.4484 deg
RA of node:        23.9712 deg
Eccentricity:    0.0146398
Arg of perigee:    18.9169 deg
Mean anomaly:     341.7385 deg
Mean motion:   14.44804730 rev/day
Decay rate:    8.3799E-006 rev/day^2
Epoch rev:           20769
Checksum:              338

Satellite: SUNSAT
Catalog number: 25636
Epoch time:      103034.53096062
Element set:     661 
Inclination:       96.4514 deg
RA of node:        23.0515 deg
Eccentricity:    0.0150212
Arg of perigee:    23.5861 deg
Mean anomaly:     337.2128 deg
Mean motion:   14.42936751 rev/day
Decay rate:    4.3099E-006 rev/day^2
Epoch rev:           20764
Checksum:              282

Satellite: UOSAT 12
Catalog number: 25693
Epoch time:      103034.51256246
Element set:     673 
Inclination:       64.5584 deg
RA of node:        56.8707 deg
Eccentricity:    0.0018834
Arg of perigee:   316.7996 deg
Mean anomaly:      43.1628 deg
Mean motion:   14.76368645 rev/day
Decay rate:    2.9400E-006 rev/day^2
Epoch rev:           20403
Checksum:              327

Satellite: FENGYUN 1C
Catalog number: 25730
Epoch time:      103033.98983449
Element set:     779 
Inclination:       98.6350 deg
RA of node:        58.9750 deg
Eccentricity:    0.0015173
Arg of perigee:    49.4054 deg
Mean anomaly:     310.8437 deg
Mean motion:   14.11731256 rev/day
Decay rate:   -5.8000E-007 rev/day^2
Epoch rev:           19243
Checksum:              317

Satellite: ASTRA 1H
Catalog number: 25785
Epoch time:      103023.00000000
Element set:     369 
Inclination:        0.0122 deg
RA of node:       319.8851 deg
Eccentricity:    0.0002995
Arg of perigee:    65.1991 deg
Mean anomaly:     116.0174 deg
Mean motion:    1.00273184 rev/day
Decay rate:    1.2299E-006 rev/day^2
Epoch rev:            1323
Checksum:              243

Satellite: TERRA
Catalog number: 25994
Epoch time:      103034.27423991
Element set:     662 
Inclination:       98.2003 deg
RA of node:       110.7311 deg
Eccentricity:    0.0001090
Arg of perigee:    71.1585 deg
Mean anomaly:     288.9693 deg
Mean motion:   14.57112200 rev/day
Decay rate:    3.8099E-006 rev/day^2
Epoch rev:           16644
Checksum:              296

Satellite: JAWSAT
Catalog number: 26061
Epoch time:      103034.54812949
Element set:     756 
Inclination:      100.2103 deg
RA of node:        88.8287 deg
Eccentricity:    0.0034784
Arg of perigee:   322.5992 deg
Mean anomaly:      37.2769 deg
Mean motion:   14.37805483 rev/day
Decay rate:    4.5400E-006 rev/day^2
Epoch rev:           15837
Checksum:              319

Satellite: OPAL
Catalog number: 26063
Epoch time:      103033.66342777
Element set:     714 
Inclination:      100.2152 deg
RA of node:        85.3564 deg
Eccentricity:    0.0037163
Arg of perigee:   332.1230 deg
Mean anomaly:      27.7953 deg
Mean motion:   14.35473854 rev/day
Decay rate:    1.1099E-006 rev/day^2
Epoch rev:           15811
Checksum:              283

Satellite: ASUSAT
Catalog number: 26065
Epoch time:      103034.24790192
Element set:     724 
Inclination:      100.2149 deg
RA of node:        86.1934 deg
Eccentricity:    0.0037123
Arg of perigee:   331.6518 deg
Mean anomaly:      28.2642 deg
Mean motion:   14.35501188 rev/day
Decay rate:    1.4700E-006 rev/day^2
Epoch rev:           15818
Checksum:              276

Satellite: GOES 11
Catalog number: 26352
Epoch time:      103033.27779084
Element set:     3 
Inclination:        0.1014 deg
RA of node:       105.2750 deg
Eccentricity:    0.0004247
Arg of perigee:   180.4569 deg
Mean anomaly:     193.3407 deg
Mean motion:    1.00263331 rev/day
Decay rate:   -4.5999E-007 rev/day^2
Epoch rev:            1007
Checksum:              366

Satellite: EUTELSAT W4
Catalog number: 26369
Epoch time:      103028.81856696
Element set:     348 
Inclination:        0.0297 deg
RA of node:        41.0424 deg
Eccentricity:    0.0009627
Arg of perigee:   313.4883 deg
Mean anomaly:     103.8214 deg
Mean motion:    1.00274845 rev/day
Decay rate:    1.5099E-006 rev/day^2
Epoch rev:             984
Checksum:              304

Satellite: FENGYUN 2B
Catalog number: 26382
Epoch time:      103033.80141014
Element set:     782 
Inclination:        0.6049 deg
RA of node:       287.3229 deg
Eccentricity:    0.0001862
Arg of perigee:   245.7788 deg
Mean anomaly:     351.9024 deg
Mean motion:    1.00276011 rev/day
Decay rate:   -3.3599E-006 rev/day^2
Epoch rev:             955
Checksum:              284

Satellite: EUTELSAT W1
Catalog number: 26487
Epoch time:      103032.84759476
Element set:     350 
Inclination:        0.0132 deg
RA of node:       253.0304 deg
Eccentricity:    0.0004193
Arg of perigee:   328.4501 deg
Mean anomaly:     225.2537 deg
Mean motion:    1.00272552 rev/day
Decay rate:    5.8000E-007 rev/day^2
Epoch rev:             885
Checksum:              364

Satellite: ASTRA 2B
Catalog number: 26494
Epoch time:      103023.00000000
Element set:     252 
Inclination:        0.0178 deg
RA of node:       354.5658 deg
Eccentricity:    0.0005000
Arg of perigee:   302.8402 deg
Mean anomaly:     212.7100 deg
Mean motion:    1.00276704 rev/day
Decay rate:    1.5399E-006 rev/day^2
Epoch rev:             865
Checksum:              221

Satellite: NOAA 16
Catalog number: 26536
Epoch time:      103034.55832330
Element set:     193 
Inclination:       98.9002 deg
RA of node:       342.9540 deg
Eccentricity:    0.0010459
Arg of perigee:   353.0099 deg
Mean anomaly:       7.0979 deg
Mean motion:   14.11892210 rev/day
Decay rate:   -4.7999E-007 rev/day^2
Epoch rev:           12203
Checksum:              307

Satellite: SAUDISAT 1A
Catalog number: 26545
Epoch time:      103033.65539521
Element set:     408 
Inclination:       64.5591 deg
RA of node:        80.8327 deg
Eccentricity:    0.0053097
Arg of perigee:   241.4752 deg
Mean anomaly:     118.1039 deg
Mean motion:   14.78936412 rev/day
Decay rate:    1.2219E-005 rev/day^2
Epoch rev:           12687
Checksum:              308

Satellite: UNISAT
Catalog number: 26547
Epoch time:      103033.64988826
Element set:     427 
Inclination:       64.5576 deg
RA of node:        83.1448 deg
Eccentricity:    0.0060354
Arg of perigee:   243.7174 deg
Mean anomaly:     115.7744 deg
Mean motion:   14.79673628 rev/day
Decay rate:    2.0809E-005 rev/day^2
Epoch rev:           12683
Checksum:              338

Satellite: TIUNGSAT 1
Catalog number: 26548
Epoch time:      103033.56741671
Element set:     413 
Inclination:       64.5582 deg
RA of node:        74.1702 deg
Eccentricity:    0.0046387
Arg of perigee:   240.4081 deg
Mean anomaly:     119.2397 deg
Mean motion:   14.81212148 rev/day
Decay rate:    1.6179E-005 rev/day^2
Epoch rev:           12700
Checksum:              289

Satellite: SAUDISAT 1B
Catalog number: 26549
Epoch time:      103034.22139165
Element set:     682 
Inclination:       64.5544 deg
RA of node:        83.1274 deg
Eccentricity:    0.0057524
Arg of perigee:   241.5026 deg
Mean anomaly:     118.0267 deg
Mean motion:   14.77876858 rev/day
Decay rate:    1.0450E-005 rev/day^2
Epoch rev:           12687
Checksum:              311

Satellite: AMSAT OSCAR 40
Catalog number: 26609
Epoch time:      103034.31137944
Element set:     309 
Inclination:        8.0492 deg
RA of node:        66.9657 deg
Eccentricity:    0.7939320
Arg of perigee:   139.8206 deg
Mean anomaly:     319.3106 deg
Mean motion:    1.25596473 rev/day
Decay rate:   -1.7900E-006 rev/day^2
Epoch rev:            1039
Checksum:              312

Satellite: GOES 12
Catalog number: 26871
Epoch time:      103031.16216598
Element set:     800 
Inclination:        0.3724 deg
RA of node:       276.8406 deg
Eccentricity:    0.0003287
Arg of perigee:   355.3269 deg
Mean anomaly:     175.6425 deg
Mean motion:    1.00363378 rev/day
Decay rate:   -1.4099E-006 rev/day^2
Epoch rev:             565
Checksum:              298

Satellite: PCSAT
Catalog number: 26931
Epoch time:      103034.19862234
Element set:     392 
Inclination:       67.0483 deg
RA of node:       295.1841 deg
Eccentricity:    0.0005081
Arg of perigee:   262.9515 deg
Mean anomaly:      97.1008 deg
Mean motion:   14.29106567 rev/day
Decay rate:    1.6100E-006 rev/day^2
Epoch rev:            7015
Checksum:              284

Satellite: SAPPHIRE
Catalog number: 26932
Epoch time:      103034.52847863
Element set:     387 
Inclination:       67.0564 deg
RA of node:       294.0435 deg
Eccentricity:    0.0005506
Arg of perigee:   239.6779 deg
Mean anomaly:     120.3783 deg
Mean motion:   14.29288165 rev/day
Decay rate:    8.2999E-007 rev/day^2
Epoch rev:            7022
Checksum:              448

Satellite: ENVISAT
Catalog number: 27386
Epoch time:      103034.45526172
Element set:     905 
Inclination:       98.5460 deg
RA of node:       103.2226 deg
Eccentricity:    0.0000929
Arg of perigee:    95.9982 deg
Mean anomaly:     264.1308 deg
Mean motion:   14.32251589 rev/day
Decay rate:    1.6799E-006 rev/day^2
Epoch rev:            4858
Checksum:              330

Satellite: IDEFIX/ARIANE 
Catalog number: 27422
Epoch time:      103033.90683668
Element set:     249 
Inclination:       98.6984 deg
RA of node:       113.1799 deg
Eccentricity:    0.0012357
Arg of perigee:   191.9942 deg
Mean anomaly:     168.0944 deg
Mean motion:   14.27960191 rev/day
Decay rate:    1.7400E-006 rev/day^2
Epoch rev:            3922
Checksum:              335

